Location: Unspecified
(0.0000°N, 1.0000°E)
Time: 11:25:36
(UTC+01:00)

Amateur Radio Satellites - All Passes

Search period start: 01 November 2014 10:55
Search period end: 02 November 2014 10:55
Location: Unspecified, 0.0000°N, 1.0000°E

Satellite Date Start Highest point End Downlink Frequencies (MHz)
Time Altitude Azimuth
Oscar 11 01 Nov 11:06:07 11:09:16 20° 282° (WNW) 11:12:27 145.825 FM, Beacon 2401.500 USB
FUNcube-1 01 Nov 11:23:57 11:27:39 32° 281° (WNW) 11:31:23 145.950 - 145.970 MHz USB
UOSAT-12 01 Nov 11:35:54 11:40:21 70° 292° (WNW) 11:44:54 437.025 FM, 437.400 FM
PANSAT 01 Nov 11:48:09 11:51:57 67° 210° (SSW) 11:55:46 not established
Sapphire 01 Nov 12:33:26 12:38:17 34° 71° (ENE) 12:43:07 437.095 MHz 1200 baud AX-25 AFSK
Oscar 10/S400 01 Nov 12:41:19 13:10:53 57° 333° (NNW) 13:30:14 145.825 - 145.975 CW/USB, Beacon 145.810 USB
PCSat 01 Nov 12:54:28 12:59:49 68° 71° (ENE) 13:05:11 145.825 MHz
PANSAT 01 Nov 13:31:16 13:32:10 11° 207° (SSW) 13:33:04 not established
Oscar 19 01 Nov 13:36:52 13:41:32 34° 78° (ENE) 13:46:08 437.125 CW, 437.150 USB
JAS-1B 01 Nov 14:03:38 14:10:14 65° 78° (ENE) 14:15:59 435.800 - 435.900 CW/SSB
AO-27 01 Nov 14:15:20 14:19:55 32° 77° (ENE) 14:24:29 436.795 MHz FM
Sapphire 01 Nov 14:18:18 14:21:26 16° 250° (WSW) 14:24:34 437.095 MHz 1200 baud AX-25 AFSK
Oscar 16 01 Nov 14:23:34 14:28:40 60° 257° (WSW) 14:33:45 437.025 USB, Beacon 2401.1428
Gurwin Techsat 1B 01 Nov 14:35:54 14:40:10 25° 77° (ENE) 14:44:24 435.225 FM
TMSAT-1 01 Nov 14:42:13 14:45:58 20° 77° (ENE) 14:49:42 436.925 FM
AO-Echo 01 Nov 14:51:54 14:56:38 63° 258° (WSW) 15:01:30 ?
Uribyol 2 01 Nov 14:57:57 15:03:09 72° 257° (WSW) 15:08:20 436.500 FM
ITAMSAT 1 01 Nov 15:06:12 15:11:20 62° 257° (WSW) 15:16:28 435.822 SSB
Oscar 19 01 Nov 15:17:54 15:20:34 14° 257° (WSW) 15:23:14 437.125 CW, 437.150 USB
Saudisat 1A 01 Nov 15:45:00 15:48:52 30° 68° (ENE) 15:52:44 436.775 MHz
AO-7 01 Nov 15:54:16 16:01:04 29° 74° (ENE) 16:07:49 29.400 - 29.500 MHz
AO-27 01 Nov 15:56:05 15:59:08 16° 257° (WSW) 16:02:11 436.795 MHz FM
Gurwin Techsat 1B 01 Nov 16:15:55 16:19:51 21° 257° (WSW) 16:23:46 435.225 FM
TMSAT-1 01 Nov 16:21:14 16:25:36 26° 257° (WSW) 16:29:58 436.925 FM
Uosat F 01 Nov 16:44:05 16:48:55 49° 77° (ENE) 16:53:45 435.120 FM
JAS-2 01 Nov 17:13:13 17:17:25 22° 75° (ENE) 17:21:55 435.800 - 435.900 CW/SSB, 435.910 FM
Saudisat 1A 01 Nov 17:26:36 17:28:11 12° 247° (WSW) 17:29:45 436.775 MHz
OPAL 01 Nov 17:38:21 17:43:10 53° 104° (ESE) 17:48:03 ?
AO-7 01 Nov 17:46:01 17:53:29 38° 254° (WSW) 18:00:56 29.400 - 29.500 MHz
ISS 01 Nov 18:29:20 18:31:14 14° 54° (NE) 18:33:08 145.800 FM
Hamsat 01 Nov 18:53:24 18:57:11 32° 258° (WSW) 19:00:56 145.90 MHz
JAS-2 01 Nov 18:57:36 19:02:12 27° 259° (W) 19:07:11 435.800 - 435.900 CW/SSB, 435.910 FM
SO-67 01 Nov 19:00:52 19:03:08 17° 79° (E) 19:05:23 435.3500 MHz FM
AO-40 01 Nov 19:02:58 22:26:10 35° 85° (E) 23:50:49 Beacon 2401.320
RS-15 01 Nov 19:34:28 19:45:51 68° 111° (ESE) 19:56:43 29.354 - 29.394 USB, Beacon 29.352 USB
STRAND 1 01 Nov 19:36:22 19:41:27 72° 283° (WNW) 19:46:32 ?
ISS 01 Nov 20:05:25 20:07:43 17° 234° (SW) 20:10:02 145.800 FM
KITSAT 1 01 Nov 20:24:27 20:30:19 22° 69° (ENE) 20:36:10 435.175 FM
SO-67 01 Nov 20:35:07 20:35:49 11° 259° (WSW) 20:36:31 435.3500 MHz FM
HO-68 01 Nov 20:54:39 21:01:05 36° 75° (ENE) 21:07:29 435.675 MHz FM
MaSat-1 01 Nov 21:16:54 21:20:54 37° 286° (WNW) 21:24:41 437.345 MHz
SO-50 01 Nov 21:28:48 21:33:39 71° 68° (ENE) 21:38:28 436.795 FM
Oscar 11 01 Nov 21:39:15 21:42:36 22° 78° (ENE) 21:45:56 145.825 FM, Beacon 2401.500 USB
RS-15 01 Nov 21:50:47 21:57:46 19° 292° (WNW) 22:04:40 29.354 - 29.394 USB, Beacon 29.352 USB
PANSAT 01 Nov 21:56:21 21:59:05 18° 151° (SSE) 22:01:48 not established
FUNcube-1 01 Nov 21:59:40 22:02:18 15° 78° (ENE) 22:04:54 145.950 - 145.970 MHz USB
KITSAT 1 01 Nov 22:17:48 22:25:23 46° 250° (WSW) 22:33:01 435.175 FM
UKube-1 01 Nov 22:40:28 22:44:36 43° 258° (WSW) 22:48:43 145.840 MHz, 145.915 MHz
HO-68 01 Nov 22:42:56 22:48:27 25° 255° (WSW) 22:53:59 435.675 MHz FM
ZACube-1 01 Nov 22:51:18 22:55:56 83° 78° (ENE) 23:00:30 437.345 MHz
Oscar 11 01 Nov 23:16:01 23:18:30 15° 258° (WSW) 23:20:59 145.825 FM, Beacon 2401.500 USB
FUNcube-1 01 Nov 23:34:36 23:38:24 25° 258° (WSW) 23:42:10 145.950 - 145.970 MHz USB
PANSAT 01 Nov 23:35:22 23:39:12 64° 330° (NNW) 23:43:01 not established
UOSAT-12 01 Nov 23:46:33 23:50:47 39° 248° (WSW) 23:54:57 437.025 FM, 437.400 FM
PCSat 01 Nov 23:50:16 23:52:58 14° 110° (ESE) 23:55:39 145.825 MHz
Sapphire 02 Nov 01:09:16 01:14:38 76° 289° (WNW) 01:20:01 437.095 MHz 1200 baud AX-25 AFSK
PANSAT 02 Nov 01:18:50 01:19:25 10° 333° (NNW) 01:19:59 not established
Oscar 16 02 Nov 01:19:33 01:23:22 21° 103° (ESE) 01:27:11 437.025 USB, Beacon 2401.1428
PCSat 02 Nov 01:31:10 01:36:07 38° 289° (WNW) 01:41:04 145.825 MHz
AO-Echo 02 Nov 01:44:19 01:47:44 18° 102° (ESE) 01:51:06 ?
Uribyol 2 02 Nov 01:55:21 01:58:51 19° 103° (ESE) 02:02:22 436.500 FM
ITAMSAT 1 02 Nov 02:03:18 02:07:11 22° 103° (ESE) 02:11:05 435.822 SSB
JAS-1B 02 Nov 02:08:28 02:17:10 81° 104° (ESE) 02:27:00 435.800 - 435.900 CW/SSB
Oscar 19 02 Nov 02:10:03 02:15:10 89° 103° (ESE) 02:20:21 437.125 CW, 437.150 USB
Oscar 10/S400 02 Nov 02:37:02 03:46:33 17° 265° (W) 05:43:52 145.825 - 145.975 CW/USB, Beacon 145.810 USB
AO-27 02 Nov 02:49:57 02:55:08 86° 102° (ESE) 03:00:20 436.795 MHz FM
Oscar 16 02 Nov 02:58:27 03:02:26 23° 283° (WNW) 03:06:26 437.025 USB, Beacon 2401.1428
Gurwin Techsat 1B 02 Nov 03:13:22 03:18:39 72° 102° (ESE) 03:23:56 435.225 FM
TMSAT-1 02 Nov 03:18:54 03:24:04 56° 102° (ESE) 03:29:15 436.925 FM
AO-Echo 02 Nov 03:21:53 03:26:14 27° 283° (WNW) 03:30:30 ?
Uribyol 2 02 Nov 03:33:48 03:38:03 26° 283° (WNW) 03:42:19 436.500 FM
ITAMSAT 1 02 Nov 03:42:24 03:46:24 23° 283° (WNW) 03:50:25 435.822 SSB
Saudisat 1A 02 Nov 03:50:41 03:54:53 46° 112° (ESE) 03:59:04 436.775 MHz
JAS-1B 02 Nov 04:03:41 04:07:32 14° 282° (WNW) 04:11:36 435.800 - 435.900 CW/SSB
AO-7 02 Nov 04:19:26 04:27:20 47° 106° (ESE) 04:35:14 29.400 - 29.500 MHz
JAS-2 02 Nov 04:47:58 04:51:39 15° 101° (E) 04:55:09 435.800 - 435.900 CW/SSB, 435.910 FM
Uosat F 02 Nov 05:13:39 05:18:38 70° 283° (WNW) 05:23:38 435.120 FM
Hamsat 02 Nov 05:26:40 05:28:27 12° 102° (ESE) 05:30:15 145.90 MHz
OPAL 02 Nov 06:10:01 06:15:09 62° 256° (WSW) 06:20:12 ?
AO-7 02 Nov 06:13:36 06:19:44 23° 287° (WNW) 06:25:55 29.400 - 29.500 MHz
JAS-2 02 Nov 06:29:12 06:36:33 58° 284° (WNW) 06:43:12 435.800 - 435.900 CW/SSB, 435.910 FM
STRAND 1 02 Nov 06:31:59 06:35:17 17° 77° (ENE) 06:38:35 ?
Hamsat 02 Nov 07:00:33 07:04:06 26° 281° (W) 07:07:43 145.90 MHz
RS-15 02 Nov 07:15:27 07:26:47 58° 70° (ENE) 07:38:34 29.354 - 29.394 USB, Beacon 29.352 USB
ISS 02 Nov 07:40:22 07:43:11 26° 306° (NW) 07:45:59 145.800 FM
STRAND 1 02 Nov 08:09:52 08:14:12 28° 257° (WSW) 08:18:32 ?
SO-67 02 Nov 08:17:16 08:19:47 19° 281° (W) 08:22:20 435.3500 MHz FM
KITSAT 1 02 Nov 08:31:40 08:38:25 29° 110° (ESE) 08:45:06 435.175 FM
HO-68 02 Nov 08:46:33 08:52:39 31° 105° (ESE) 08:58:43 435.675 MHz FM
MaSat-1 02 Nov 08:56:54 08:59:11 44° 252° (WSW) 09:01:38 437.345 MHz
UKube-1 02 Nov 09:17:38 09:18:17 10° 103° (ESE) 09:18:55 145.840 MHz, 145.915 MHz
RS-15 02 Nov 09:29:54 09:38:56 26° 247° (WSW) 09:48:17 29.354 - 29.394 USB, Beacon 29.352 USB
SO-50 02 Nov 09:42:28 09:46:47 60° 292° (WNW) 09:51:08 436.795 FM
PANSAT 02 Nov 09:43:33 09:46:16 19° 29° (NNE) 09:49:00 not established
Oscar 11 02 Nov 09:47:53 09:51:37 29° 102° (ESE) 09:55:24 145.825 FM, Beacon 2401.500 USB
FUNcube-1 02 Nov 10:09:48 10:12:40 18° 102° (ESE) 10:15:34 145.950 - 145.970 MHz USB
UOSAT-12 02 Nov 10:18:01 10:20:52 17° 112° (ESE) 10:23:45 437.025 FM, 437.400 FM
KITSAT 1 02 Nov 10:26:18 10:33:28 36° 290° (WNW) 10:40:38 435.175 FM
HO-68 02 Nov 10:34:02 10:40:01 29° 285° (WNW) 10:46:02 435.675 MHz FM
